Awendaw, SC

10:12 AM EDT on July 24, 2016 (GMT -0400)
Mount Pleasant

Weather History for KLRO - November, 2012

Change the Weather History Date:

Tuesday, November 20, 2012

  Actual Average (KCHS) Record (KCHS)
Temperature  
Mean Temperature 55 °F 58 °F  
Max Temperature 62 °F 69 °F 82 °F (1942)
Min Temperature 46 °F 46 °F 25 °F (1951)
Degree Days  
Heating Degree Days 10 8  
Month to date heating degree days 126  
Since 1 July heating degree days 195  
Cooling Degree Days 0 1  
Month to date cooling degree days 25  
Year to date cooling degree days 2289  
Growing Degree Days 5 (Base 50)    
Moisture  
Dew Point 50 °F    
Average Humidity 88    
Maximum Humidity 100    
Minimum Humidity 68    
Precipitation  
Precipitation 0.00 in 0.08 in 2.56 in (1986)
Month to date precipitation 1.63  
Year to date precipitation 47.12  
Sea Level Pressure  
Sea Level Pressure 30.08 in    
Wind  
Wind Speed 6 mph (NNW)    
Max Wind Speed 10 mph    
Max Gust Speed -    
Visibility 8 miles    
Events      
T = Trace of Precipitation, MM = Missing Value Source: NWS Daily Summary

Daily Weather History Graph

Daily Weather History Graph

Search for Another Location

Airport or City:

Trip Planner

Search our weather history database for the weather conditions in past years. The results will help you decide how hot, cold, wet, or windy it might be!

Date:

Astronomy

Nov. 20, 2012 Rise Set
Actual Time 6:54 AM EST 5:14 PM EST
Civil Twilight 6:28 AM EST 5:41 PM EST
Nautical Twilight 5:57 AM EST 6:11 PM EST
Astronomical Twilight 5:28 AM EST 6:41 PM EST
Moon 12:38 PM EST (11/20) No Moon Set
Length of Visible Light 11h 13m
Length of Day
10h 20m
Waxing Crescent, 51% of the Moon is Illuminated
Nov 20
Waxing Crescent
Nov 28
Full
Dec 6
Last Quarter
Dec 13
New
Dec 20
First Quarter

Hourly Weather History & Observations

Time (EST) Temp. Dew Point Humidity Pressure Visibility Wind Dir Wind Speed Gust Speed Precip Events Conditions
12:15 AM 53.6 °F 50.0 °F 88% 30.10 in 10.0 mi NNW 6.9 mph - N/A   Clear
12:35 AM 53.6 °F 50.0 °F 88% 30.09 in 10.0 mi North 8.1 mph - N/A   Clear
12:55 AM 53.6 °F 48.2 °F 82% 30.09 in 10.0 mi North 6.9 mph - N/A   Clear
1:15 AM 53.6 °F 48.2 °F 82% 30.09 in 10.0 mi North 8.1 mph - N/A   Clear
1:35 AM 51.8 °F 48.2 °F 88% 30.09 in 10.0 mi North 5.8 mph - N/A   Clear
1:55 AM 51.8 °F 48.2 °F 88% 30.09 in 10.0 mi NNW 6.9 mph - N/A   Clear
2:15 AM 51.8 °F 48.2 °F 88% 30.09 in 10.0 mi NNW 6.9 mph - N/A   Clear
2:35 AM 51.8 °F 48.2 °F 88% 30.09 in 10.0 mi NNW 8.1 mph - N/A   Clear
2:55 AM 51.8 °F 46.4 °F 82% 30.08 in 10.0 mi North 8.1 mph - N/A   Clear
3:15 AM 51.8 °F 46.4 °F 82% 30.09 in 10.0 mi North 6.9 mph - N/A   Clear
3:35 AM 51.8 °F 46.4 °F 82% 30.09 in 10.0 mi North 6.9 mph - N/A   Scattered Clouds
7:15 AM 48.2 °F 46.4 °F 93% 30.13 in 7.0 mi NNE 3.5 mph - N/A   Overcast
7:35 AM 48.2 °F 48.2 °F 100% 30.12 in 6.0 mi NNE 4.6 mph - N/A   Overcast
7:55 AM 50.0 °F 48.2 °F 94% 30.14 in 6.0 mi North 5.8 mph - N/A   Overcast
8:15 AM 50.0 °F 48.2 °F 94% 30.13 in 5.0 mi NNE 5.8 mph - N/A   Overcast
8:35 AM 50.0 °F 48.2 °F 94% 30.13 in 5.0 mi North 6.9 mph - N/A   Overcast
8:55 AM 51.8 °F 48.2 °F 88% 30.13 in 6.0 mi North 5.8 mph - N/A   Overcast
9:15 AM 51.8 °F 48.2 °F 88% 30.14 in 5.0 mi North 6.9 mph - N/A   Overcast
9:35 AM 51.8 °F 48.2 °F 88% 30.14 in 6.0 mi North 5.8 mph - N/A   Overcast
9:55 AM 51.8 °F 48.2 °F 88% 30.14 in 7.0 mi NNW 6.9 mph - N/A   Overcast
10:15 AM 51.8 °F 48.2 °F 88% 30.14 in 7.0 mi North 5.8 mph - N/A   Overcast
10:35 AM 51.8 °F 48.2 °F 88% 30.13 in 7.0 mi NNW 8.1 mph - N/A   Overcast
10:55 AM 53.6 °F 50.0 °F 88% 30.13 in 8.0 mi NNW 8.1 mph - N/A   Overcast
11:15 AM 53.6 °F 50.0 °F 88% 30.12 in 8.0 mi NNW 9.2 mph - N/A   Overcast
11:35 AM 53.6 °F 50.0 °F 88% 30.11 in 9.0 mi NW 10.4 mph - N/A   Overcast
12:15 PM 55.4 °F 50.0 °F 82% 30.10 in 10.0 mi NNW 5.8 mph - N/A   Mostly Cloudy
12:35 PM 57.2 °F 51.8 °F 82% 30.08 in 10.0 mi NNW 6.9 mph - N/A   Mostly Cloudy
1:15 PM 60.8 °F 51.8 °F 72% 30.06 in 10.0 mi NNW 4.6 mph - N/A   Scattered Clouds
1:35 PM 60.8 °F 51.8 °F 72% 30.05 in 10.0 mi NW 4.6 mph - N/A   Clear
1:55 PM 62.6 °F 51.8 °F 68% 30.04 in 10.0 mi WNW 9.2 mph - N/A   Partly Cloudy
2:15 PM 62.6 °F 51.8 °F 68% 30.04 in 9.0 mi NNW 5.8 mph - N/A   Partly Cloudy
2:35 PM 62.6 °F 51.8 °F 68% 30.04 in 10.0 mi NW 9.2 mph - N/A   Partly Cloudy
2:55 PM 60.8 °F 51.8 °F 72% 30.04 in 9.0 mi NW 6.9 mph - N/A   Partly Cloudy
3:15 PM 60.8 °F 51.8 °F 72% 30.03 in 10.0 mi NNW 6.9 mph - N/A   Clear
3:35 PM 62.6 °F 51.8 °F 68% 30.03 in 10.0 mi NW 5.8 mph - N/A   Clear
3:55 PM 60.8 °F 51.8 °F 72% 30.04 in 10.0 mi NNW 4.6 mph - N/A   Clear
4:15 PM 60.8 °F 51.8 °F 72% 30.04 in 10.0 mi NNW 4.6 mph - N/A   Clear
4:35 PM 60.8 °F 51.8 °F 72% 30.04 in 10.0 mi NNW 3.5 mph - N/A   Clear
4:55 PM 60.8 °F 53.6 °F 77% 30.04 in 10.0 mi Calm Calm - N/A   Clear
5:15 PM 57.2 °F 53.6 °F 88% 30.04 in 10.0 mi Calm Calm - N/A   Clear
5:55 PM 55.4 °F 53.6 °F 94% 30.04 in 10.0 mi Calm Calm - N/A   Clear
6:15 PM 53.6 °F 53.6 °F 100% 30.05 in 10.0 mi Calm Calm - N/A   Clear
6:35 PM 53.6 °F 53.6 °F 100% 30.06 in 9.0 mi Calm Calm - N/A   Clear
6:55 PM 53.6 °F 53.6 °F 100% 30.06 in 7.0 mi Calm Calm - N/A   Clear
7:15 PM 53.6 °F 51.8 °F 94% 30.07 in 5.0 mi Calm Calm - N/A   Clear
7:55 PM 51.8 °F 51.8 °F 100% 30.07 in 5.0 mi Calm Calm - N/A   Clear
8:15 PM 51.8 °F 51.8 °F 100% 30.07 in 4.0 mi Calm Calm - N/A   Clear
8:35 PM 50.0 °F 48.2 °F 94% 30.07 in 4.0 mi Calm Calm - N/A   Clear
8:55 PM 48.2 °F 48.2 °F 100% 30.08 in 5.0 mi Calm Calm - N/A   Clear
9:15 PM 48.2 °F 48.2 °F 100% 30.08 in 5.0 mi Calm Calm - N/A   Clear
9:35 PM 48.2 °F 48.2 °F 100% 30.08 in 6.0 mi Calm Calm - N/A   Clear
9:55 PM 48.2 °F 48.2 °F 100% 30.08 in 6.0 mi Calm Calm - N/A   Clear
10:15 PM 48.2 °F 48.2 °F 100% 30.08 in 7.0 mi North 3.5 mph - N/A   Partly Cloudy
10:35 PM 48.2 °F 48.2 °F 100% 30.08 in 5.0 mi NNE 3.5 mph - N/A   Clear
10:55 PM 48.2 °F 48.2 °F 100% 30.08 in 6.0 mi NNE 3.5 mph - N/A   Clear
11:15 PM 48.2 °F 48.2 °F 100% 30.08 in 5.0 mi NNE 3.5 mph - N/A   Clear
11:35 PM 48.2 °F 48.2 °F 100% 30.07 in 5.0 mi Calm Calm - N/A   Clear
11:55 PM 46.4 °F 46.4 °F 100% 30.07 in 4.0 mi Calm Calm - N/A   Clear